Le nostre stazioni meteo in Italia

Pubblicità
Il mio iltempo24.it
Dunstaffnage, Gran Bretagna (99006): Temperatura & dewpoint: 02.12.2019 13:00:00 - 08.12.2019 13:00:00 (GMT)Dunstaffnage, Gran Bretagna (99006): Temperatura -20cm: 02.12.2019 13:00:00 - 08.12.2019 13:00:00 (GMT)Dunstaffnage, Gran Bretagna (99006): velocità del vento & gusts: 02.12.2019 13:00:00 - 08.12.2019 13:00:00 (GMT)Dunstaffnage, Gran Bretagna (99006): direzione del vento: 02.12.2019 13:00:00 - 08.12.2019 13:00:00 (GMT)Dunstaffnage, Gran Bretagna (99006): precipitazioni: 02.12.2019 13:00:00 - 08.12.2019 13:00:00 (GMT)
Data & Tempo tt [°C] td [°C] tt -20cm [°C] ff [km/h] ff [kn] fx [km/h] fx [kn] dd rr [mm]
08.12.2019 13:00:00 8,2 3,9 - 44 24 76 41 OSO 0,0
08.12.2019 12:00:00 7,7 5,6 - 44 24 72 39 OSO 0,8
08.12.2019 11:00:00 6,7 4,2 - 29 16 59 32 OSO 1,0
08.12.2019 10:00:00 6,4 4,0 - 21 11 74 40 OSO 0,2
08.12.2019 09:00:00 7,3 2,9 7,7 35 19 55 30 OSO 0,0
08.12.2019 08:00:00 7,2 3,8 - 41 22 68 37 OSO 0,0
08.12.2019 07:00:00 7,2 4,4 - 29 16 78 42 OSO 0,4
08.12.2019 06:00:00 7,9 4,5 - 29 16 59 32 OSO 0,4
08.12.2019 05:00:00 8,2 4,7 - 35 19 52 28 OSO 0,2
08.12.2019 04:00:00 8,3 4,6 - 28 15 63 34 OSO 1,0
08.12.2019 03:00:00 9,1 3,6 - 35 19 67 36 O 0,0
08.12.2019 02:00:00 9,0 4,6 - 46 25 68 37 O 0,0
08.12.2019 01:00:00 9,6 6,9 - 29 16 57 31 O 0,4
08.12.2019 00:00:00 9,6 7,1 - 31 17 85 46 OSO 2,0
07.12.2019 23:00:00 10,9 10,2 - 22 12 52 28 SSO 3,2
07.12.2019 22:00:00 10,8 10,0 - 22 12 52 28 SSO 2,8
07.12.2019 21:00:00 10,9 10,0 - 24 13 57 31 S 5,6
07.12.2019 20:00:00 10,8 9,8 - 24 13 48 26 S 4,2
07.12.2019 19:00:00 10,8 9,9 - 18 10 - - S 5,2
07.12.2019 18:00:00 11,0 10,0 - 22 12 57 31 S 3,2
07.12.2019 17:00:00 11,2 10,0 - 26 14 54 29 SSO 1,0
07.12.2019 16:00:00 11,2 10,5 - 26 14 48 26 SO 2,6
07.12.2019 15:00:00 10,4 9,8 - 16 9 - - SSO 2,6
07.12.2019 14:00:00 9,4 8,7 - 16 9 - - S 4,4
07.12.2019 13:00:00 9,1 8,3 - 16 9 - - S 2,6
07.12.2019 12:00:00 9,4 8,8 - 16 9 - - S 0,2
07.12.2019 11:00:00 9,4 8,9 - 11 6 - - S 0,4
07.12.2019 10:00:00 9,1 8,5 - 13 7 - - SO 0,4
07.12.2019 09:00:00 8,9 7,9 7,0 11 6 - - SO 0,0
07.12.2019 08:00:00 8,2 6,9 - 8 4 - - SO 0,0
07.12.2019 07:00:00 8,1 7,0 - 8 4 - - OSO 0,0
07.12.2019 06:00:00 8,1 7,2 - 5 3 - - OSO 0,0
07.12.2019 05:00:00 8,0 7,0 - 9 5 - - OSO 0,0
07.12.2019 04:00:00 8,1 6,8 - 11 6 - - O 0,0
07.12.2019 03:00:00 8,1 6,5 - 16 9 - - OSO 0,0
07.12.2019 02:00:00 8,1 6,7 - 15 8 - - O 0,0
07.12.2019 01:00:00 8,3 7,0 - 18 10 - - O 0,0
07.12.2019 00:00:00 8,2 7,1 - 11 6 - - O 0,0
06.12.2019 23:00:00 8,1 7,3 - 15 8 - - O 0,0
06.12.2019 22:00:00 8,0 7,1 - 11 6 - - O 0,0
06.12.2019 21:00:00 8,1 6,9 - 9 5 - - O 0,0
06.12.2019 20:00:00 8,6 7,3 - 13 7 - - ONO 0,0
06.12.2019 19:00:00 8,6 7,9 - 22 12 - - O 0,0
06.12.2019 18:00:00 8,6 7,8 - 31 17 46 25 O 0,8
06.12.2019 17:00:00 8,6 7,7 - 18 10 52 28 O 1,0
06.12.2019 16:00:00 9,2 7,1 - 29 16 48 26 O 0,0
06.12.2019 15:00:00 9,1 7,9 - 29 16 46 25 O 0,4
06.12.2019 14:00:00 10,0 7,6 - 22 12 - - O 0,0
06.12.2019 13:00:00 9,5 8,1 - 22 12 - - O 0,2
06.12.2019 12:00:00 9,8 7,9 - 22 12 - - O 0,0
06.12.2019 11:00:00 9,6 7,3 - 9 5 - - OSO 0,0
06.12.2019 10:00:00 9,4 7,7 - 13 7 - - OSO 0,0
06.12.2019 09:00:00 9,8 7,5 7,2 21 11 - - O 0,0
06.12.2019 08:00:00 9,9 8,1 - 22 12 - - O 0,2
06.12.2019 07:00:00 10,3 9,4 - 21 11 - - OSO 0,2
06.12.2019 06:00:00 10,8 10,4 - 24 13 - - OSO 0,8
06.12.2019 05:00:00 10,6 10,2 - 21 11 - - SO 1,8
06.12.2019 04:00:00 10,6 10,0 - 22 12 - - OSO 1,6
06.12.2019 03:00:00 10,6 10,0 - 22 12 - - OSO 0,6
06.12.2019 02:00:00 10,5 9,6 - 26 14 - - OSO 0,0
06.12.2019 01:00:00 10,7 9,9 - 26 14 - - SO 0,0
06.12.2019 00:00:00 10,5 9,8 - 24 13 46 25 OSO 0,2
05.12.2019 23:00:00 10,9 9,5 - 26 14 - - SO 0,0
05.12.2019 22:00:00 11,2 10,0 - 28 15 - - OSO 0,0
05.12.2019 21:00:00 11,2 10,1 - 15 8 - - OSO 0,0
05.12.2019 20:00:00 11,5 10,2 - 21 11 46 25 OSO 0,0
05.12.2019 19:00:00 11,4 10,8 - 34 18 59 32 OSO 1,2
05.12.2019 18:00:00 11,4 10,8 - 31 17 54 29 OSO 2,8
05.12.2019 17:00:00 11,2 10,8 - 28 15 50 27 OSO 4,4
05.12.2019 16:00:00 10,8 10,3 - 26 14 50 27 SO 5,0
05.12.2019 15:00:00 10,7 10,1 - 24 13 63 34 SO 2,6
05.12.2019 14:00:00 10,2 9,6 - 26 14 54 29 SO 3,0
05.12.2019 13:00:00 8,5 7,8 - 21 11 - - S 2,8
05.12.2019 12:00:00 7,8 7,0 - 16 9 - - S 1,8
05.12.2019 11:00:00 7,7 6,8 - 16 9 - - S 1,6
05.12.2019 10:00:00 7,9 6,8 - 24 13 - - SSO 1,6
05.12.2019 09:00:00 7,7 6,6 6,0 21 11 - - SSO 1,0
05.12.2019 08:00:00 8,2 6,7 - 22 12 50 27 SO 0,6
05.12.2019 07:00:00 8,4 6,9 - 35 19 67 36 OSO 0,2
05.12.2019 06:00:00 9,1 5,7 - 31 17 54 29 SO 0,0
05.12.2019 05:00:00 7,9 6,3 - 28 15 55 30 OSO 0,6
05.12.2019 04:00:00 8,2 6,2 - 31 17 61 33 OSO 0,4
05.12.2019 03:00:00 8,3 6,0 - 29 16 54 29 OSO 0,2
05.12.2019 02:00:00 8,0 5,4 - 22 12 57 31 OSO 0,4
05.12.2019 01:00:00 8,5 4,4 - 31 17 46 25 OSO 0,0
05.12.2019 00:00:00 8,1 4,7 - 29 16 54 29 OSO 0,0
04.12.2019 23:00:00 7,4 3,2 - 26 14 48 26 OSO 0,0
04.12.2019 22:00:00 7,9 4,4 - 31 17 48 26 OSO 0,2
04.12.2019 21:00:00 7,8 4,8 - 22 12 55 30 OSO 0,0
04.12.2019 20:00:00 7,9 3,8 - 22 12 48 26 OSO 0,0
04.12.2019 19:00:00 7,3 4,6 - 13 7 54 29 SO 0,0
04.12.2019 18:00:00 7,6 4,4 - 24 13 - - OSO 0,2
04.12.2019 17:00:00 7,3 4,4 - 15 8 - - SO 0,0
04.12.2019 16:00:00 7,1 4,6 - 18 10 63 34 OSO 1,0
04.12.2019 15:00:00 9,0 4,1 - 24 13 46 25 OSO 0,0
04.12.2019 14:00:00 9,1 4,6 - 26 14 46 25 OSO 0,0
04.12.2019 13:00:00 9,5 5,2 - 31 17 48 26 OSO 0,0
04.12.2019 12:00:00 8,5 7,0 - 16 9 - - OSO 0,2
04.12.2019 11:00:00 8,8 8,0 - 21 11 48 26 SO 0,8
04.12.2019 10:00:00 8,5 7,3 - 21 11 - - SSO 1,4
04.12.2019 09:00:00 8,1 7,3 5,7 15 8 - - SSO 2,4
04.12.2019 08:00:00 7,7 6,9 - 13 7 - - S 2,0
04.12.2019 07:00:00 7,7 6,9 - 15 8 - - S 3,2
04.12.2019 06:00:00 7,0 6,2 - 13 7 - - S 2,0
04.12.2019 05:00:00 7,0 5,7 - 13 7 46 25 S 0,8
04.12.2019 04:00:00 8,2 4,7 - 18 10 - - S 0,0
04.12.2019 03:00:00 8,4 4,5 - 15 8 - - S 0,0
04.12.2019 02:00:00 8,2 4,4 - 18 10 - - S 0,0
04.12.2019 01:00:00 8,0 4,2 - 15 8 - - S 0,0
04.12.2019 00:00:00 7,7 4,3 - 13 7 - - SE 0,0
03.12.2019 23:00:00 7,7 4,5 - 18 10 - - S 0,0
03.12.2019 22:00:00 7,5 4,2 - 11 6 - - S 0,0
03.12.2019 21:00:00 7,4 4,1 - 9 5 - - SSE 0,0
03.12.2019 20:00:00 6,8 4,0 - 11 6 - - SE 0,0
03.12.2019 19:00:00 6,3 4,0 - 11 6 - - SE 0,0
03.12.2019 18:00:00 6,5 4,0 - 13 7 - - S 0,0
03.12.2019 17:00:00 6,2 3,5 - 9 5 - - SE 0,0
03.12.2019 16:00:00 7,0 3,8 - 8 4 - - S 0,0
03.12.2019 15:00:00 7,4 4,4 - 5 3 - - S 0,0
03.12.2019 14:00:00 7,9 4,4 - 11 6 - - S 0,0
03.12.2019 13:00:00 8,1 3,9 - 13 7 - - S 0,0
03.12.2019 12:00:00 8,2 3,9 - 15 8 - - S 0,0
03.12.2019 11:00:00 8,1 4,4 - 9 5 - - S 0,0
03.12.2019 10:00:00 8,2 4,8 - 9 5 - - S 0,0
03.12.2019 09:00:00 8,3 4,9 5,0 8 4 - - S 0,0
03.12.2019 08:00:00 8,4 5,4 - 9 5 - - S 0,0
03.12.2019 07:00:00 8,7 6,0 - 13 7 - - SSO 0,0
03.12.2019 06:00:00 9,1 5,6 - 15 8 - - OSO 0,0
03.12.2019 05:00:00 9,1 5,6 - 11 6 - - OSO 0,0
03.12.2019 04:00:00 9,2 6,3 - 16 9 - - OSO 0,0
03.12.2019 03:00:00 8,9 6,2 - 11 6 - - OSO 0,0
03.12.2019 02:00:00 9,0 6,0 - 16 9 - - OSO 0,0
03.12.2019 01:00:00 9,1 6,2 - 15 8 - - OSO 0,0
03.12.2019 00:00:00 9,1 6,4 - 21 11 - - OSO 0,0
02.12.2019 23:00:00 9,1 6,6 - 16 9 - - OSO 0,0
02.12.2019 22:00:00 9,0 7,0 - 18 10 - - OSO 0,0
02.12.2019 21:00:00 9,0 7,2 - 13 7 - - OSO 0,0
02.12.2019 20:00:00 8,9 7,6 - 11 6 - - SO 0,0
02.12.2019 19:00:00 8,6 7,7 - 9 5 - - OSO 0,0
02.12.2019 18:00:00 8,6 7,9 - 13 7 - - OSO 0,4
02.12.2019 17:00:00 8,6 7,8 - 16 9 - - OSO 0,4
02.12.2019 16:00:00 8,7 7,8 - 15 8 - - SO 0,2
02.12.2019 15:00:00 8,8 7,6 - 15 8 - - SO 0,4
02.12.2019 14:00:00 8,8 7,5 - 22 12 - - OSO 0,0
02.12.2019 13:00:00 9,0 7,4 - 21 11 - - OSO 0,0

tt = Temperatura
td = dewpoint
tt -20cm = Temperatura -20cm
ff = velocità del vento
fx = gusts
dd = direzione del vento
rr = precipitazioni

Stazioni seguenti

WeatherPro
AMSI
MeteoEarth